sat.trackr.live / text

‹ back to catalog

KUIPER-00262

NORAD 67788 · 2026-030AA

PAYLOAD ACTIVE UNKNOWN

§ Identity

Operator
Country
US
Launch date
2026-02-12
Launch site
FRGUI
Launch vehicle
Mass (kg)
RCS (m²)

External: N2YO · Heavens-Above · Gunter

§ Orbital elements

Epoch: 2026-05-25T05:10:37.128000Z

Period
97.32 min
Inclination
51.8998°
Eccentricity
0.0000589
Mean motion
14.79693326 rev/d
Perigee alt
629.9 km
Apogee alt
630.7 km
Semi-major
7,008.4 km
B*
9.1005e-3
RAAN
217.2270°
Arg perigee
176.8771°
Mean anomaly
183.2194°
Rev number
1,675

§ Raw data

KUIPER-002621 67788U 26030AA  26145.21570750  .00069479  00000+0  91005-2 0  99932 67788  51.8998 217.2270 0000589 176.8771 183.2194 14.79693326 16755

JSON: /api/v1/satellites/67788 · /tle

For live sub-satellite position, see the globe view (requires WebGL).

§ Visibility from observer

Set your observer location to see the next 7 days of passes ≥ 10°. The values pass through the URL so the page stays shareable.

No JS? Fill the form by hand. The geolocation button needs JavaScript.